TimeMDT,TemperatureF,Dew PointF,Humidity,Sea Level PressureIn,VisibilityMPH,Wind Direction,Wind SpeedMPH,Gust SpeedMPH,PrecipitationIn,Events,Conditions,WindDirDegrees,DateUTC
12:53 AM,53.1,23.0,31,29.70,10.0,SW,11.5,-,N/A,,Clear,230,2012-10-03 06:53:00
1:53 AM,52.0,25.0,35,29.71,10.0,SW,11.5,-,N/A,,Clear,220,2012-10-03 07:53:00
2:53 AM,48.9,25.0,39,29.71,10.0,SW,11.5,-,N/A,,Clear,220,2012-10-03 08:53:00
3:53 AM,51.1,24.1,35,29.69,10.0,SW,19.6,-,N/A,,Clear,220,2012-10-03 09:53:00
4:53 AM,52.0,24.1,34,29.70,10.0,SW,8.1,-,N/A,,Clear,230,2012-10-03 10:53:00
5:53 AM,46.0,24.1,42,29.74,10.0,West,11.5,-,N/A,,Clear,260,2012-10-03 11:53:00
6:53 AM,46.0,24.1,42,29.75,10.0,WSW,11.5,-,N/A,,Clear,240,2012-10-03 12:53:00
7:53 AM,48.0,25.0,41,29.76,10.0,SSW,10.4,16.1,N/A,,Clear,210,2012-10-03 13:53:00
9:53 AM,64.9,23.0,20,29.70,10.0,West,24.2,34.5,N/A,,Clear,260,2012-10-03 15:53:00
10:53 AM,66.9,19.9,17,29.71,10.0,West,33.4,42.6,N/A,,Clear,260,2012-10-03 16:53:00
11:53 AM,69.1,15.1,13,29.71,10.0,West,27.6,43.7,N/A,,Clear,270,2012-10-03 17:53:00
12:53 PM,69.1,9.0,10,29.70,10.0,West,29.9,40.3,N/A,,Clear,260,2012-10-03 18:53:00
1:53 PM,71.1,12.9,11,29.68,10.0,West,25.3,32.2,N/A,,Clear,270,2012-10-03 19:53:00
2:53 PM,70.0,9.0,9,29.71,10.0,West,34.5,40.3,N/A,,Scattered Clouds,280,2012-10-03 20:53:00
3:53 PM,69.1,-5.1,5,29.71,10.0,West,35.7,44.9,N/A,,Clear,280,2012-10-03 21:53:00
4:53 PM,55.0,27.0,34,29.81,10.0,North,26.5,35.7,N/A,,Clear,350,2012-10-03 22:53:00
5:53 PM,48.0,28.9,48,29.94,10.0,NE,24.2,32.2,N/A,,Clear,50,2012-10-03 23:53:00
6:00 PM,46.4,28.4,50,30.13,10.0,NE,18.4,-,N/A,,Clear,50,2012-10-04 00:00:00
6:53 PM,37.0,28.0,70,30.08,10.0,NE,12.7,-,N/A,,Clear,40,2012-10-04 00:53:00
7:46 PM,33.8,26.6,75,30.24,10.0,NNE,10.4,-,N/A,,Mostly Cloudy,20,2012-10-04 01:46:00
7:53 PM,35.1,27.0,72,30.14,10.0,NNE,10.4,-,N/A,,Overcast,20,2012-10-04 01:53:00
8:53 PM,34.0,25.0,70,30.12,10.0,NNW,17.3,23.0,N/A,,Scattered Clouds,340,2012-10-04 02:53:00
9:53 PM,30.9,21.9,69,30.13,10.0,NNW,16.1,-,N/A,,Partly Cloudy,330,2012-10-04 03:53:00
10:53 PM,30.0,23.0,75,30.15,10.0,North,10.4,-,N/A,,Overcast,350,2012-10-04 04:53:00
11:17 PM,30.2,23.0,75,30.34,10.0,North,11.5,-,N/A,,Overcast,360,2012-10-04 05:17:00
11:33 PM,30.2,23.0,75,30.34,10.0,North,11.5,-,N/A,,Overcast,350,2012-10-04 05:33:00
11:53 PM,30.0,23.0,75,30.14,10.0,North,11.5,-,N/A,,Overcast,360,2012-10-04 05:53:00